| time (UTC) | temp C | wind direction | speed KPH | gust KPH | rain 1hr cm | rain 24hr cm | rain mn cm | humidity % | barometer mb |
| 20260503201533 | 20 | 32 | 12.9 | 24.1 | 0.00 | 0.00 | 0.00 | 38 | 1016.4 |
| 20260503200016 | 20 | 69 | 1.6 | 25.7 | 0.00 | 0.00 | 0.00 | 35 | 1016.6 |
| 20260503194525 | 20 | 38 | 4.8 | 22.5 | 0.00 | 0.00 | 0.00 | 35 | 1016.9 |
| 20260503193024 | 20 | 25 | 4.8 | 11.3 | 0.00 | 0.00 | 0.00 | 34 | 1017.1 |
| 20260503191528 | 20 | 232 | 4.8 | 14.5 | 0.00 | 0.00 | 0.00 | 30 | 1017.4 |
| 20260503190037 | 19 | 140 | 1.6 | 20.9 | 0.00 | 0.00 | 0.00 | 35 | 1017.6 |
| 20260503184522 | 18 | 47 | 4.8 | 22.5 | 0.00 | 0.00 | 0.00 | 33 | 1017.8 |
| 20260503183028 | 18 | 309 | 4.8 | 14.5 | 0.00 | 0.00 | 0.00 | 31 | 1018.1 |
| 20260503181509 | 18 | 79 | 0.0 | 11.3 | 0.00 | 0.00 | 0.00 | 38 | 1018.3 |
| 20260503180024 | 18 | 342 | 3.2 | 19.3 | 0.00 | 0.00 | 0.00 | 33 | 1018.5 |
| 20260503174527 | 17 | 250 | 4.8 | 22.5 | 0.00 | 0.00 | 0.00 | 35 | 1018.5 |
| 20260503173039 | 17 | 179 | 4.8 | 17.7 | 0.00 | 0.00 | 0.00 | 35 | 1018.7 |
| 20260503171534 | 17 | 63 | 1.6 | 16.1 | 0.00 | 0.00 | 0.00 | 40 | 1019.1 |
| 20260503081508 | 2 | 60 | 0.0 | 0.0 | 0.00 | 0.00 | 0.00 | 93 | 1017.8 |
| 20260503071520 | 3 | 68 | 0.0 | 1.6 | 0.00 | 0.00 | 0.00 | 93 | 1017.1 |
| 20260503054525 | 4 | 66 | 0.0 | 1.6 | 0.00 | 0.00 | 0.00 | 90 | 1016.8 |
| 20260503053007 | 4 | 73 | 0.0 | 1.6 | 0.00 | 0.00 | 0.00 | 90 | 1016.9 |
| 20260503051509 | 5 | 73 | 0.0 | 1.6 | 0.00 | 0.00 | 0.00 | 89 | 1016.9 |
| 20260503050011 | 5 | 22 | 3.2 | 4.8 | 0.00 | 0.00 | 0.00 | 89 | 1016.7 |
| 20260503044528 | 5 | 129 | 0.0 | 1.6 | 0.00 | 0.00 | 0.00 | 88 | 1016.6 |
| 20260503043024 | 5 | 55 | 0.0 | 3.2 | 0.00 | 0.00 | 0.00 | 87 | 1016.6 |
| 20260503041510 | 6 | 72 | 0.0 | 0.0 | 0.00 | 0.00 | 0.00 | 85 | 1016.4 |
| 20260503040008 | 6 | 72 | 0.0 | 1.6 | 0.00 | 0.00 | 0.00 | 84 | 1016.2 |
| 20260503034517 | 6 | 72 | 0.0 | 1.6 | 0.00 | 0.00 | 0.00 | 83 | 1016.0 |
| 20260503033042 | 7 | 72 | 0.0 | 1.6 | 0.00 | 0.00 | 0.00 | 79 | 1015.9 |
| 20260503031534 | 7 | 72 | 0.0 | 1.6 | 0.00 | 0.00 | 0.00 | 78 | 1015.8 |
| 20260503030006 | 8 | 126 | 0.0 | 0.0 | 0.00 | 0.00 | 0.00 | 77 | 1015.6 |
| 20260503024515 | 8 | 125 | 0.0 | 0.0 | 0.00 | 0.00 | 0.00 | 73 | 1015.5 |
| 20260503023035 | 9 | 125 | 0.0 | 0.0 | 0.00 | 0.00 | 0.00 | 69 | 1015.4 |
| 20260503021524 | 10 | 125 | 0.0 | 0.0 | 0.00 | 0.00 | 0.00 | 68 | 1015.2 |
| 20260503020024 | 10 | 141 | 0.0 | 1.6 | 0.00 | 0.00 | 0.00 | 65 | 1015.1 |
| 20260503014530 | 11 | 141 | 0.0 | 1.6 | 0.00 | 0.00 | 0.00 | 61 | 1014.7 |
| 20260503013012 | 12 | 141 | 0.0 | 1.6 | 0.00 | 0.00 | 0.00 | 56 | 1014.5 |
| 20260503011522 | 13 | 141 | 0.0 | 1.6 | 0.00 | 0.00 | 0.00 | 52 | 1014.4 |
| 20260503010030 | 14 | 145 | 1.6 | 11.3 | 0.00 | 0.00 | 0.00 | 52 | 1014.1 |
| 20260503004528 | 15 | 141 | 0.0 | 3.2 | 0.00 | 0.00 | 0.00 | 54 | 1013.9 |
| 20260503003030 | 15 | 174 | 4.8 | 9.7 | 0.00 | 0.00 | 0.00 | 47 | 1013.5 |
| 20260503001510 | 15 | 130 | 6.4 | 11.3 | 0.00 | 0.00 | 0.00 | 49 | 1013.3 |
| 20260503000003 | 14 | 139 | 1.6 | 3.2 | 0.00 | 0.00 | 0.00 | 58 | 1013.0 |
| 20260502234507 | 15 | 108 | 0.0 | 1.6 | 0.00 | 0.00 | 0.00 | 58 | 1012.5 |
| 20260502233009 | 15 | 137 | 0.0 | 0.0 | 0.00 | 0.00 | 0.00 | 51 | 1012.2 |
| 20260502231516 | 15 | 162 | 0.0 | 3.2 | 0.00 | 0.00 | 0.00 | 58 | 1012.0 |
| 20260502230016 | 15 | 142 | 0.0 | 4.8 | 0.00 | 0.00 | 0.00 | 60 | 1012.0 |
| 20260502224503 | 16 | 169 | 1.6 | 6.4 | 0.00 | 0.00 | 0.00 | 62 | 1011.9 |
| 20260502223006 | 16 | 167 | 1.6 | 8.0 | 0.00 | 0.00 | 0.00 | 59 | 1011.9 |
| 20260502221508 | 17 | 78 | 0.0 | 1.6 | 0.00 | 0.00 | 0.00 | 57 | 1011.7 |
| 20260502220012 | 17 | 69 | 0.0 | 1.6 | 0.00 | 0.00 | 0.00 | 53 | 1011.3 |
| 20260502214516 | 17 | 65 | 1.6 | 4.8 | 0.00 | 0.00 | 0.00 | 55 | 1011.3 |
| 20260502213004 | 18 | 61 | 0.0 | 4.8 | 0.00 | 0.00 | 0.00 | 53 | 1011.2 |
| 20260502211510 | 18 | 37 | 1.6 | 3.2 | 0.00 | 0.00 | 0.00 | 56 | 1011.0 |
| 20260502210013 | 17 | 20 | 8.0 | 12.9 | 0.00 | 0.00 | 0.00 | 51 | 1011.1 |
| 20260502204521 | 17 | 149 | 0.0 | 6.4 | 0.00 | 0.00 | 0.00 | 51 | 1011.2 |
| 20260502203024 | 17 | 68 | 0.0 | 3.2 | 0.00 | 0.00 | 0.00 | 54 | 1011.3 |